Location: Asheville, NC
(35.6000°N, 82.5500°W)
Time: 16:36:30
(UTC-04:00)

ISS - Pass Details

Date: 10 May 2026
Orbit: 414 x 424 km, 51.6° (Epoch: 15 May)

Event Time Altitude Azimuth Distance (km) Brightness Sun altitude
Rises 22:40:26 0° 284° (WNW) 2,341 0.9 -23.6°
Reaches altitude 10° 22:44:25 10° 332° (NNW) 1,483 0.0 -24.2°
Maximum altitude 22:44:48 10° 338° (NNW) 1,474 -0.1 -24.2°
Drops below altitude 10° 22:45:12 10° 345° (NNW) 1,484 -0.2 -24.3°
Sets 22:49:12 0° 33° (NNE) 2,351 0.2 -24.8°
